Flag for Netherlands Weather past 2 weeks in Zwolle, Netherlands

Now
72 °F

Passing clouds.


Feels Like: 77 °F
Forecast: 60 / 78 °F
Wind: 14 mph from West

Location: Amsterdam Schiphol Airport

Current Time: Jul 6, 2015 at 6:47:00 PM

Latest Report: Jul 6, 2015 at 5:55 PM


Visibility: N/A

Pressure: 30.09 "Hg

Humidity: 53%

Dew point: 54 °F

Location of ZwolleLocation

Historic Weather in Zwolle — Graph

°F

Zwolle temperature yesterday

Maximum temperature yesterday: 81 °F (at 1:25 PM)
Minimum temperature yesterday: 63 °F (at 2:55 AM)
Average temperature yesterday: 68 °F

Past Weeks' High & Low Weather Summary

 TemperatureHumidityPressure
High91 °F (Jul 1, 3:55 PM)100% (Jun 30, 2:55 AM)30.24 "Hg (Jun 30, 2:55 AM)
Low50 °F (Jun 22, 10:55 PM)23% (Jun 26, 4:55 PM)29.68 "Hg (Jun 22, 7:25 PM)
Average67 °F70%30.06 "Hg
* Reported Jun 21 5:25 PM — Jul 6 5:25 PM, Zwolle, Weather by CustomWeather, © 2015

Note: Actual official high and low records may vary slightly from our data, if they occured in-between our weather recording intervals... More about our weather records

Advertising

Zwolle weather history for previous 24 hours

 ConditionsComfort  
Time TempWeatherWind HumidityBarometerVisibility
5:25 PM
Mon, Jul 6
70 °FPassing clouds.12 mph53%30.09 "HgN/A
4:55 PM70 °FPassing clouds.15 mph46%30.12 "HgN/A
4:25 PM70 °FPassing clouds.17 mph50%30.12 "HgN/A
3:55 PM70 °FPassing clouds.17 mph53%30.12 "HgN/A
3:25 PM70 °FPassing clouds.17 mph53%30.12 "HgN/A
2:55 PM70 °FPassing clouds.15 mph57%30.12 "HgN/A
2:25 PM70 °FPassing clouds.16 mph57%30.12 "HgN/A
1:55 PM70 °FPassing clouds.16 mph60%30.12 "HgN/A
1:25 PM70 °FPassing clouds.15 mph53%30.12 "HgN/A
12:55 PM70 °FPassing clouds.16 mph60%30.12 "HgN/A
12:25 PM68 °FPassing clouds.17 mph64%30.12 "HgN/A
11:55 AM66 °FPassing clouds.16 mph68%30.12 "HgN/A
11:25 AM68 °FPassing clouds.15 mph64%30.12 "HgN/A
10:55 AM68 °FPassing clouds.15 mph64%30.12 "HgN/A
10:25 AM66 °FPassing clouds.13 mph68%30.12 "HgN/A
9:55 AM66 °FPassing clouds.15 mph68%30.12 "HgN/A
9:25 AM66 °FPassing clouds.16 mph68%30.12 "HgN/A
8:55 AM64 °FScattered clouds.14 mph73%30.12 "HgN/A
8:25 AM63 °FScattered clouds.14 mph83%30.12 "HgN/A
7:55 AM64 °FPassing clouds.10 mph73%30.12 "HgN/A
7:25 AM63 °FPassing clouds.9 mph83%30.09 "HgN/A
6:55 AM61 °FPassing clouds.8 mph88%30.09 "HgN/A
6:25 AM59 °FClear.8 mph88%30.09 "Hg10 mi
5:55 AM57 °FClear.9 mph94%30.09 "Hg10 mi
5:25 AM59 °FPassing clouds.9 mph88%30.09 "HgN/A
4:55 AM61 °FClear.9 mph83%30.09 "Hg10 mi
4:25 AM61 °FClear.10 mph77%30.07 "Hg10 mi
3:55 AM61 °FClear.13 mph77%30.07 "Hg10 mi
3:25 AM61 °FClear.12 mph83%30.07 "Hg10 mi
2:55 AM61 °FPassing clouds.10 mph88%30.07 "HgN/A
2:25 AM63 °FPassing clouds.12 mph83%30.07 "HgN/A
1:55 AM63 °FPassing clouds.12 mph83%30.04 "HgN/A
1:25 AM61 °FPassing clouds.13 mph88%30.04 "HgN/A
12:55 AM61 °FClear.10 mph88%30.04 "Hg10 mi
12:25 AM63 °FPassing clouds.13 mph88%30.04 "HgN/A
11:55 PM
Sun, Jul 5
63 °FPassing clouds.14 mph88%30.04 "HgN/A
11:25 PM63 °FPassing clouds.17 mph88%30.01 "HgN/A
10:55 PM63 °FPassing clouds.15 mph88%30.01 "HgN/A
10:25 PM64 °FPassing clouds.14 mph78%30.01 "HgN/A
9:55 PM64 °FPassing clouds.14 mph78%29.98 "HgN/A
9:25 PM64 °FPassing clouds.14 mph78%29.98 "HgN/A
8:55 PM64 °FPassing clouds.18 mph78%29.98 "HgN/A
8:25 PM66 °FScattered clouds.18 mph68%29.98 "HgN/A
7:55 PM68 °FPassing clouds.16 mph69%29.98 "HgN/A
7:25 PM68 °FPassing clouds.15 mph69%29.98 "HgN/A
6:55 PM70 °FPassing clouds.8 mph69%29.95 "HgN/A
6:25 PM68 °FPassing clouds.7 mph78%29.95 "HgN/A
Weather by CustomWeather, © 2015

See weather overviewHow to use our weather pages